Port Angeles, WA

1:29 AM PST on December 14, 2017 (GMT -0800)
Fairchild International

Weather History for KCLM - December, 2012

Change the Weather History Date:

Sunday, December 30, 2012

  Actual Average Record
Temperature  
Mean Temperature 38 °F -  
Max Temperature 42 °F 43 °F 55 °F (1952)
Min Temperature 35 °F 34 °F 12 °F (1968)
Degree Days  
Heating Degree Days 26    
Moisture  
Dew Point 36 °F    
Average Humidity 88    
Maximum Humidity 97    
Minimum Humidity 77    
Precipitation  
Precipitation 0.00 in - - ()
Sea Level Pressure  
Sea Level Pressure 30.27 in    
Wind  
Wind Speed 3 mph (South)    
Max Wind Speed 7 mph    
Max Gust Speed -    
Visibility 10 miles    
Events      
Averages and records for this station are not official NWS values.
T = Trace of Precipitation, MM = Missing Value Source: NWS Daily Summary

Daily Weather History Graph

Daily Weather History Graph

Search for Another Location

Airport or City:

Trip Planner

Search our weather history database for the weather conditions in past years. The results will help you decide how hot, cold, wet, or windy it might be!

Date:

Astronomy

Dec. 30, 2012 Rise Set
Actual Time 8:04 AM PST 4:29 PM PST
Civil Twilight 7:27 AM PST 5:05 PM PST
Nautical Twilight 6:48 AM PST 5:45 PM PST
Astronomical Twilight 6:10 AM PST 6:23 PM PST
Moon 7:19 PM PST (12/30) 9:04 AM PST (12/30)
Length of Visible Light 9h 37m
Length of Day
8h 25m
Waning Gibbous, 95% of the Moon is Illuminated
Dec 30
Waning Gibbous
Jan 4
Last Quarter
Jan 11
New
Jan 18
First Quarter
Jan 26
Full

Hourly Weather History & Observations

Time (PST) Temp. Windchill Dew Point Humidity Pressure Visibility Wind Dir Wind Speed Gust Speed Precip Events Conditions
12:02 AM 39.9 °F - 37.9 °F 93% 30.23 in 10.0 mi Calm Calm - N/A   Overcast
12:53 AM 39.9 °F - 37.9 °F 93% 30.25 in 10.0 mi Calm Calm - N/A   Overcast
1:53 AM 39.9 °F 36.7 °F 37.0 °F 89% 30.24 in 10.0 mi ESE 4.6 mph - N/A   Overcast
2:53 AM 39.0 °F - 37.0 °F 93% 30.25 in 9.0 mi Calm Calm - N/A   Overcast
3:53 AM 37.9 °F 35.5 °F 37.0 °F 97% 30.27 in 10.0 mi SSW 3.5 mph - N/A   Overcast
4:04 AM 37.9 °F 35.5 °F 37.0 °F 97% 30.26 in 10.0 mi SW 3.5 mph - N/A   Overcast
4:12 AM 37.9 °F - 37.0 °F 97% 30.26 in 10.0 mi Calm Calm - N/A   Overcast
4:53 AM 39.0 °F 34.8 °F 36.0 °F 89% 30.27 in 10.0 mi SW 5.8 mph - N/A   Overcast
5:53 AM 37.9 °F 34.4 °F 36.0 °F 93% 30.27 in 10.0 mi SW 4.6 mph - N/A   Overcast
6:31 AM 37.9 °F 35.5 °F 36.0 °F 93% 30.26 in 10.0 mi SSW 3.5 mph - N/A   Overcast
6:53 AM 37.9 °F - 36.0 °F 93% 30.27 in 10.0 mi Calm Calm - N/A   Overcast
7:53 AM 37.9 °F 32.7 °F 35.1 °F 89% 30.27 in 10.0 mi WSW 6.9 mph - N/A   Overcast
8:53 AM 37.9 °F 34.4 °F 34.0 °F 86% 30.29 in 10.0 mi WSW 4.6 mph - N/A   Overcast
9:53 AM 37.9 °F 34.4 °F 34.0 °F 86% 30.31 in 10.0 mi SW 4.6 mph - N/A   Overcast
10:53 AM 39.0 °F 36.8 °F 35.1 °F 86% 30.32 in 10.0 mi SW 3.5 mph - N/A   Overcast
11:53 AM 41.0 °F - 36.0 °F 82% 30.30 in 10.0 mi Calm Calm - N/A   Overcast
12:53 PM 42.1 °F 38.4 °F 36.0 °F 79% 30.30 in 10.0 mi East 5.8 mph - N/A   Overcast
1:53 PM 41.0 °F 37.1 °F 36.0 °F 82% 30.29 in 10.0 mi SE 5.8 mph - N/A   Overcast
2:05 PM 41.0 °F 38.0 °F 36.0 °F 82% 30.28 in 10.0 mi East 4.6 mph - N/A   Overcast
2:46 PM 41.0 °F 38.0 °F 36.0 °F 82% 30.28 in 10.0 mi Variable 4.6 mph - N/A   Overcast
2:53 PM 41.0 °F 36.4 °F 36.0 °F 82% 30.29 in 10.0 mi East 6.9 mph - N/A   Overcast
3:04 PM 41.0 °F 37.1 °F 36.0 °F 82% 30.28 in 10.0 mi ESE 5.8 mph - N/A   Overcast
3:53 PM 41.0 °F 36.4 °F 36.0 °F 82% 30.28 in 10.0 mi East 6.9 mph - N/A   Overcast
4:16 PM 41.0 °F 36.4 °F 36.0 °F 82% 30.27 in 10.0 mi East 6.9 mph - N/A   Overcast
4:53 PM 39.9 °F 37.8 °F 37.0 °F 89% 30.27 in 10.0 mi SSE 3.5 mph - N/A   Overcast
5:53 PM 39.9 °F - 33.1 °F 77% 30.28 in 10.0 mi Calm Calm - N/A   Overcast
6:53 PM 39.0 °F - 35.1 °F 86% 30.27 in 10.0 mi Calm Calm - N/A   Overcast
7:53 PM 37.9 °F - 35.1 °F 89% 30.27 in 10.0 mi Calm Calm - N/A   Overcast
8:53 PM 37.9 °F - 35.1 °F 89% 30.27 in 10.0 mi Calm Calm - N/A   Overcast
9:30 PM 36.0 °F 33.3 °F 34.0 °F 93% 30.26 in 10.0 mi South 3.5 mph - N/A   Scattered Clouds
9:53 PM 36.0 °F - 34.0 °F 93% 30.28 in 10.0 mi Calm Calm - N/A   Partly Cloudy
10:12 PM 37.0 °F - 34.0 °F 89% 30.27 in 10.0 mi Calm Calm - N/A   Mostly Cloudy
10:53 PM 35.1 °F 32.2 °F 33.1 °F 92% 30.29 in 10.0 mi WSW 3.5 mph - N/A   Overcast
11:53 PM 36.0 °F 31.1 °F 34.0 °F 93% 30.28 in 10.0 mi SW 5.8 mph - N/A   Overcast